Blue Hill Weather Center

Moon Phase Calendar



Online Cameras

 


      

Current Conditions in Surry
1/21/2021 9:38:44 PM

22°F
Feels Like 15
Snow
Humidity
93%
Pressure
29.65"
Wind
3.4 mph (N)
Dew Point
20°F
UV Index
0/10 (Low)
Visibility
6 mi

Hourly Forecast

Date & Time Thu, Jan 21
9:00 PM
Thu, Jan 21
10:00 PM
Thu, Jan 21
11:00 PM
Fri, Jan 22
12:00 AM
Fri, Jan 22
1:00 AM
Fri, Jan 22
2:00 AM
Fri, Jan 22
3:00 AM
Fri, Jan 22
4:00 AM
Fri, Jan 22
5:00 AM
Fri, Jan 22
6:00 AM
Fri, Jan 22
7:00 AM
Fri, Jan 22
8:00 AM
Fri, Jan 22
9:00 AM
Fri, Jan 22
10:00 AM
Fri, Jan 22
11:00 AM
Fri, Jan 22
12:00 PM
Fri, Jan 22
1:00 PM
Fri, Jan 22
2:00 PM
Fri, Jan 22
3:00 PM
Fri, Jan 22
4:00 PM
Fri, Jan 22
5:00 PM
Fri, Jan 22
6:00 PM
Fri, Jan 22
7:00 PM
Fri, Jan 22
8:00 PM
Fri, Jan 22
9:00 PM
Fri, Jan 22
10:00 PM
Fri, Jan 22
11:00 PM
Sat, Jan 23
12:00 AM
Sat, Jan 23
1:00 AM
Sat, Jan 23
2:00 AM
Sat, Jan 23
3:00 AM
Sat, Jan 23
4:00 AM
Sat, Jan 23
5:00 AM
Sat, Jan 23
6:00 AM
Sat, Jan 23
7:00 AM
Sat, Jan 23
8:00 AM
Sat, Jan 23
9:00 AM
Sat, Jan 23
10:00 AM
Sat, Jan 23
11:00 AM
Sat, Jan 23
12:00 PM
Sat, Jan 23
1:00 PM
Sat, Jan 23
2:00 PM
Sat, Jan 23
3:00 PM
Sat, Jan 23
4:00 PM
Sat, Jan 23
5:00 PM
Sat, Jan 23
6:00 PM
Sat, Jan 23
7:00 PM
Sat, Jan 23
8:00 PM
Condition
Clouds

Clouds

Clouds

Clouds

Clouds

Clouds

Clouds

Clouds

Snow

Snow

Snow

Snow

Snow

Snow

Clouds

Clouds

Clouds

Clouds

Clouds

Clouds

Clouds

Clouds

Clouds

Clouds

Clouds

Clouds

Clouds

Clouds

Snow

Clouds

Clouds

Clouds

Clouds

Clouds

Clouds

Clouds

Clouds

Clouds

Clouds

Clouds

Clouds

Clear

Clear

Clear

Clear

Clear

Clear

Clear
Temperature 22°F24°F26°F27°F28°F28°F28°F29°F28°F28°F29°F30°F31°F32°F33°F34°F35°F36°F35°F33°F30°F30°F30°F30°F30°F30°F30°F29°F29°F28°F27°F26°F26°F25°F24°F24°F24°F24°F25°F26°F26°F26°F26°F24°F22°F20°F18°F18°F
Feels Like 16°F19°F21°F21°F22°F22°F22°F22°F22°F22°F22°F24°F26°F27°F27°F29°F29°F29°F28°F26°F24°F23°F24°F25°F25°F24°F23°F21°F19°F19°F17°F15°F14°F13°F12°F11°F11°F11°F12°F12°F12°F12°F11°F9°F6°F4°F2°F1°F
Cloudiness 90%84%85%87%90%100%100%100%100%100%100%100%100%100%97%90%83%32%25%19%23%33%44%100%100%100%100%100%100%100%90%94%95%95%96%100%100%99%91%72%60%0%0%0%0%0%0%0%
Visibility 6 mi6 mi6 mi6 mi6 mi6 mi6 mi5 mi1 mi0 mi0 mi0 mi0 mi1 mi6 mi6 mi6 mi6 mi6 mi6 mi6 mi6 mi6 mi6 mi6 mi6 mi6 mi2 mi6 mi6 mi6 mi6 mi6 mi6 mi6 mi6 mi6 mi6 mi6 mi6 mi6 mi6 mi6 mi6 mi6 mi6 mi6 mi6 mi
Precipitation 0%0%0%0%0%0%0%5%28%40%49%67%69%73%69%67%71%8%8%4%4%0%0%0%0%8%11%18%29%34%23%23%23%23%23%8%6%6%5%5%1%0%0%0%0%0%0%0%
Humidity 93%91%90%90%91%91%92%94%96%98%99%99%98%98%93%87%84%83%84%92%96%96%96%95%95%95%94%97%95%90%88%89%89%89%89%88%87%86%85%85%85%84%85%85%85%85%84%83%
Dew Point 20°F22°F24°F25°F26°F20°F21°F23°F25°F27°F28°F29°F30°F30°F29°F29°F28°F28°F28°F27°F27°F26°F26°F26°F25°F25°F25°F26°F24°F19°F16°F16°F16°F15°F14°F14°F13°F13°F12°F12°F12°F12°F12°F11°F9°F7°F6°F5°F
Pressure 29.65"29.65"29.59"29.59"29.56"29.56"29.56"29.56"29.56"29.56"29.56"29.56"29.56"29.56"29.59"29.56"29.56"29.56"29.59"29.59"29.62"29.62"29.65"29.65"29.65"29.65"29.65"29.62"29.62"29.62"29.62"29.62"29.62"29.62"29.62"29.65"29.65"29.65"29.65"29.62"29.62"29.62"29.62"29.62"29.65"29.65"29.65"29.65"
Wind Speed 2.3 mph0.7 mph0.9 mph1.9 mph2.5 mph2.9 mph3.8 mph4 mph4.1 mph4.3 mph4.2 mph3.3 mph1 mph2 mph3.4 mph3.8 mph4.5 mph4.9 mph5.2 mph5.1 mph5.3 mph4.1 mph2.6 mph2 mph2.4 mph3.2 mph4.8 mph7.5 mph9.1 mph8.8 mph10.4 mph11.8 mph12.4 mph12.6 mph13.1 mph14 mph14.3 mph14.4 mph14.9 mph15.5 mph16.1 mph16.3 mph16.8 mph17.5 mph18 mph18.9 mph19 mph19 mph
Wind
Direction
258°
WSW
222°
SW
125°
SE
103°
ESE
101°
E
105°
ESE
116°
ESE
120°
ESE
123°
ESE
124°
SE
121°
ESE
120°
ESE
108°
ESE
328°
NNW
310°
NW
316°
NW
318°
NW
320°
NW
333°
NNW
336°
NNW
344°
NNW
349°
N
356°
N
353°
N
342°
NNW
342°
NNW
338°
NNW
344°
NNW
347°
NNW
337°
NNW
331°
NNW
328°
NNW
328°
NNW
328°
NNW
325°
NW
325°
NW
325°
NW
323°
NW
322°
NW
323°
NW
322°
NW
319°
NW
315°
NW
316°
NW
316°
NW
314°
NW
312°
NW
309°
NW

Daily Forecast

Date High Low Precip. Humidity
Today
Jan 21

Snow
27 °F
18 °F
25%
81%
Friday
Jan 22

Snow
36 °F
27 °F
73%
93%
Saturday
Jan 23

Snow
29 °F
18 °F
29%
86%
Sunday
Jan 24

Clear
19 °F
14 °F
0%
82%
Monday
Jan 25

Clear
25 °F
16 °F
0%
86%
Tuesday
Jan 26

Clear
27 °F
15 °F
0%
86%
Wednesday
Jan 27

Snow
26 °F
18 °F
24%
87%
Thursday
Jan 28

Clear
26 °F
17 °F
0%
87%
Friday
Jan 29

Clear
23 °F
14 °F
0%
86%
Saturday
Jan 30

Clear
28 °F
15 °F
0%
81%
Sunday
Jan 31

Rain
45 °F
23 °F
100%
82%
Monday
Feb 1

Rain
45 °F
27 °F
100%
74%
Tuesday
Feb 2

Clouds
32 °F
26 °F
12%
87%
Wednesday
Feb 3

Clear
36 °F
27 °F
22%
83%
Thursday
Feb 4

Rain
45 °F
33 °F
83%
82%
Friday
Feb 5

Snow
47 °F
32 °F
100%
84%


Temperature 8-14 Day Outlook



Precipitation 8-14 Day Outlook




Quick Links
Blue Hill News
Blue Hill Photos
Blue Hill Videos




About Us
Contact Us
Site Map
Search Site
Advertise With Us
   
BlueHill.USCoast.info
THE BLUE HILL WEBSITE

Copyright 2021, Coastal Town
Privacy    |    Legal